Time,TemperatureF,DewpointF,PressureIn,WindDirection,WindDirectionDegrees,WindSpeedMPH,WindSpeedGustMPH,Humidity,HourlyPrecipIn,Conditions,Clouds,dailyrainin,SoftwareType,DateUTC
2013-01-15 00:00:00,41.0,35.0,-100.00,SSW,204,1.0,-999.0,78,0.00,,,-99.99,,2013-01-15 08:00:00,
2013-01-15 00:22:00,41.0,35.0,-100.00,SSW,204,1.0,-999.0,78,0.00,,,-99.99,,2013-01-15 08:22:00,
2013-01-15 00:33:00,41.0,35.0,-100.00,SSW,204,1.0,-999.0,78,0.00,,,-99.99,,2013-01-15 08:33:00,
2013-01-15 01:00:00,39.0,33.0,-100.00,North,3,5.0,-999.0,81,0.00,,,-99.99,,2013-01-15 09:00:00,
2013-01-15 01:22:00,39.0,33.0,-100.00,North,3,5.0,-999.0,81,0.00,,,-99.99,,2013-01-15 09:22:00,
2013-01-15 01:33:00,39.0,33.0,-100.00,North,3,5.0,-999.0,81,0.00,,,-99.99,,2013-01-15 09:33:00,
2013-01-15 01:42:00,39.0,33.0,-100.00,North,3,5.0,-999.0,81,0.00,,,-99.99,,2013-01-15 09:42:00,
2013-01-15 01:52:00,39.0,33.0,-100.00,North,3,5.0,-999.0,81,0.00,,,-99.99,,2013-01-15 09:52:00,
2013-01-15 02:00:00,39.0,33.0,-100.00,North,355,3.0,-999.0,80,0.00,,,-99.99,,2013-01-15 10:00:00,
2013-01-15 02:22:00,39.0,33.0,-100.00,North,355,3.0,-999.0,80,0.00,,,-99.99,,2013-01-15 10:22:00,
2013-01-15 02:32:00,39.0,33.0,-100.00,North,355,3.0,-999.0,80,0.00,,,-99.99,,2013-01-15 10:32:00,
2013-01-15 02:42:00,39.0,33.0,-100.00,North,355,3.0,-999.0,80,0.00,,,-99.99,,2013-01-15 10:42:00,
2013-01-15 02:52:00,39.0,33.0,-100.00,North,355,3.0,-999.0,80,0.00,,,-99.99,,2013-01-15 10:52:00,
2013-01-15 03:23:00,38.0,31.0,-100.00,NNE,28,4.0,-999.0,77,0.00,,,-99.99,,2013-01-15 11:23:00,
2013-01-15 03:33:00,38.0,31.0,-100.00,NNE,28,4.0,-999.0,77,0.00,,,-99.99,,2013-01-15 11:33:00,
2013-01-15 04:23:00,37.0,32.0,-100.00,NNW,346,5.0,-999.0,81,0.00,,,-99.99,,2013-01-15 12:23:00,
2013-01-15 04:33:00,37.0,32.0,-100.00,NNW,346,5.0,-999.0,81,0.00,,,-99.99,,2013-01-15 12:33:00,
2013-01-15 04:43:00,37.0,32.0,-100.00,NNW,346,5.0,-999.0,81,0.00,,,-99.99,,2013-01-15 12:43:00,
2013-01-15 04:53:00,37.0,32.0,-100.00,NNW,346,5.0,-999.0,81,0.00,,,-99.99,,2013-01-15 12:53:00,
2013-01-15 05:00:00,36.0,31.0,-100.00,NNW,337,7.0,-999.0,82,0.00,,,-99.99,,2013-01-15 13:00:00,
2013-01-15 05:23:00,36.0,31.0,-100.00,NNW,337,7.0,-999.0,82,0.00,,,-99.99,,2013-01-15 13:23:00,
2013-01-15 05:33:00,36.0,31.0,-100.00,NNW,337,7.0,-999.0,82,0.00,,,-99.99,,2013-01-15 13:33:00,
2013-01-15 05:43:00,36.0,31.0,-100.00,NNW,337,7.0,-999.0,82,0.00,,,-99.99,,2013-01-15 13:43:00,
2013-01-15 05:53:00,36.0,31.0,-100.00,NNW,337,7.0,-999.0,82,0.00,,,-99.99,,2013-01-15 13:53:00,
2013-01-15 06:00:00,36.0,31.0,-100.00,North,350,4.0,-999.0,83,0.00,,,-99.99,,2013-01-15 14:00:00,
2013-01-15 06:23:00,36.0,31.0,-100.00,North,350,4.0,-999.0,83,0.00,,,-99.99,,2013-01-15 14:23:00,
2013-01-15 06:33:00,36.0,31.0,-100.00,North,350,4.0,-999.0,83,0.00,,,-99.99,,2013-01-15 14:33:00,
2013-01-15 06:43:00,36.0,31.0,-100.00,North,350,4.0,-999.0,83,0.00,,,-99.99,,2013-01-15 14:43:00,
2013-01-15 06:53:00,36.0,31.0,-100.00,North,350,4.0,-999.0,83,0.00,,,-99.99,,2013-01-15 14:53:00,
2013-01-15 07:00:00,35.0,31.0,-100.00,North,350,10.0,-999.0,83,0.00,,,-99.99,,2013-01-15 15:00:00,
2013-01-15 07:23:00,35.0,31.0,-100.00,North,350,10.0,-999.0,83,0.00,,,-99.99,,2013-01-15 15:23:00,
2013-01-15 07:33:00,35.0,31.0,-100.00,North,350,10.0,-999.0,83,0.00,,,-99.99,,2013-01-15 15:33:00,
2013-01-15 07:43:00,35.0,31.0,-100.00,North,350,10.0,-999.0,83,0.00,,,-99.99,,2013-01-15 15:43:00,
2013-01-15 07:53:00,35.0,31.0,-100.00,North,350,10.0,-999.0,83,0.00,,,-99.99,,2013-01-15 15:53:00,
2013-01-15 08:00:00,35.0,31.0,-100.00,NNW,346,7.0,-999.0,84,0.00,,,-99.99,,2013-01-15 16:00:00,
2013-01-15 08:23:00,35.0,31.0,-100.00,NNW,346,7.0,-999.0,84,0.00,,,-99.99,,2013-01-15 16:23:00,
2013-01-15 08:33:00,35.0,31.0,-100.00,NNW,346,7.0,-999.0,84,0.00,,,-99.99,,2013-01-15 16:33:00,
2013-01-15 08:43:00,35.0,31.0,-100.00,NNW,346,7.0,-999.0,84,0.00,,,-99.99,,2013-01-15 16:43:00,
2013-01-15 08:53:00,35.0,31.0,-100.00,NNW,346,7.0,-999.0,84,0.00,,,-99.99,,2013-01-15 16:53:00,
2013-01-15 09:00:00,35.0,31.0,-100.00,North,357,6.0,-999.0,84,0.00,,,-99.99,,2013-01-15 17:00:00,
2013-01-15 09:23:00,35.0,31.0,-100.00,North,357,6.0,-999.0,84,0.00,,,-99.99,,2013-01-15 17:23:00,
2013-01-15 09:33:00,35.0,31.0,-100.00,North,357,6.0,-999.0,84,0.00,,,-99.99,,2013-01-15 17:33:00,
2013-01-15 09:43:00,35.0,31.0,-100.00,North,357,6.0,-999.0,84,0.00,,,-99.99,,2013-01-15 17:43:00,
2013-01-15 09:53:00,35.0,31.0,-100.00,North,357,6.0,-999.0,84,0.00,,,-99.99,,2013-01-15 17:53:00,
2013-01-15 10:00:00,36.0,32.0,-100.00,NNE,15,9.0,-999.0,82,0.00,,,-99.99,,2013-01-15 18:00:00,
2013-01-15 10:23:00,36.0,32.0,-100.00,NNE,15,9.0,-999.0,82,0.00,,,-99.99,,2013-01-15 18:23:00,
2013-01-15 10:33:00,36.0,32.0,-100.00,NNE,15,9.0,-999.0,82,0.00,,,-99.99,,2013-01-15 18:33:00,
2013-01-15 10:43:00,36.0,32.0,-100.00,NNE,15,9.0,-999.0,82,0.00,,,-99.99,,2013-01-15 18:43:00,
2013-01-15 10:53:00,36.0,32.0,-100.00,NNE,15,9.0,-999.0,82,0.00,,,-99.99,,2013-01-15 18:53:00,
2013-01-15 11:00:00,41.0,33.0,-100.00,East,85,5.0,-999.0,72,0.00,,,-99.99,,2013-01-15 19:00:00,
2013-01-15 11:23:00,41.0,33.0,-100.00,East,85,5.0,-999.0,72,0.00,,,-99.99,,2013-01-15 19:23:00,
2013-01-15 11:33:00,41.0,33.0,-100.00,East,85,5.0,-999.0,72,0.00,,,-99.99,,2013-01-15 19:33:00,
2013-01-15 11:43:00,41.0,33.0,-100.00,East,85,5.0,-999.0,72,0.00,,,-99.99,,2013-01-15 19:43:00,
2013-01-15 11:53:00,41.0,33.0,-100.00,East,85,5.0,-999.0,72,0.00,,,-99.99,,2013-01-15 19:53:00,
2013-01-15 12:00:00,44.0,31.0,-100.00,ESE,111,8.0,-999.0,60,0.00,,,-99.99,,2013-01-15 20:00:00,
2013-01-15 12:23:00,44.0,31.0,-100.00,ESE,111,8.0,-999.0,60,0.00,,,-99.99,,2013-01-15 20:23:00,
2013-01-15 12:33:00,44.0,31.0,-100.00,ESE,111,8.0,-999.0,60,0.00,,,-99.99,,2013-01-15 20:33:00,
2013-01-15 12:43:00,44.0,31.0,-100.00,ESE,111,8.0,-999.0,60,0.00,,,-99.99,,2013-01-15 20:43:00,
2013-01-15 12:53:00,44.0,31.0,-100.00,ESE,111,8.0,-999.0,60,0.00,,,-99.99,,2013-01-15 20:53:00,
2013-01-15 13:00:00,47.0,32.0,-100.00,SE,133,9.0,-999.0,56,0.00,,,-99.99,,2013-01-15 21:00:00,
2013-01-15 13:23:00,47.0,32.0,-100.00,SE,133,9.0,-999.0,56,0.00,,,-99.99,,2013-01-15 21:23:00,
2013-01-15 13:34:00,47.0,32.0,-100.00,SE,133,9.0,-999.0,56,0.00,,,-99.99,,2013-01-15 21:34:00,
2013-01-15 13:43:00,47.0,32.0,-100.00,SE,133,9.0,-999.0,56,0.00,,,-99.99,,2013-01-15 21:43:00,
2013-01-15 13:53:00,47.0,32.0,-100.00,SE,133,9.0,-999.0,56,0.00,,,-99.99,,2013-01-15 21:53:00,
2013-01-15 14:00:00,49.0,34.0,-100.00,SSE,150,7.0,-999.0,54,0.00,,,-99.99,,2013-01-15 22:00:00,
2013-01-15 14:23:00,49.0,34.0,-100.00,SSE,150,7.0,-999.0,54,0.00,,,-99.99,,2013-01-15 22:23:00,
2013-01-15 14:33:00,49.0,34.0,-100.00,SSE,150,7.0,-999.0,54,0.00,,,-99.99,,2013-01-15 22:33:00,
2013-01-15 14:43:00,49.0,34.0,-100.00,SSE,150,7.0,-999.0,54,0.00,,,-99.99,,2013-01-15 22:43:00,
2013-01-15 14:53:00,49.0,34.0,-100.00,SSE,150,7.0,-999.0,54,0.00,,,-99.99,,2013-01-15 22:53:00,
2013-01-15 16:00:00,50.0,30.0,-100.00,SSE,155,8.0,-999.0,45,0.00,,,-99.99,,2013-01-16 00:00:00,
2013-01-15 16:23:00,50.0,30.0,-100.00,SSE,155,8.0,-999.0,45,0.00,,,-99.99,,2013-01-16 00:23:00,
2013-01-15 16:33:00,50.0,30.0,-100.00,SSE,155,8.0,-999.0,45,0.00,,,-99.99,,2013-01-16 00:33:00,
2013-01-15 16:43:00,50.0,30.0,-100.00,SSE,155,8.0,-999.0,45,0.00,,,-99.99,,2013-01-16 00:43:00,
2013-01-15 16:53:00,50.0,30.0,-100.00,SSE,155,8.0,-999.0,45,0.00,,,-99.99,,2013-01-16 00:53:00,
2013-01-15 17:00:00,49.0,30.0,-100.00,SE,128,5.0,-999.0,49,0.00,,,-99.99,,2013-01-16 01:00:00,
2013-01-15 17:23:00,49.0,30.0,-100.00,SE,128,5.0,-999.0,49,0.00,,,-99.99,,2013-01-16 01:23:00,
2013-01-15 17:33:00,49.0,30.0,-100.00,SE,128,5.0,-999.0,49,0.00,,,-99.99,,2013-01-16 01:33:00,
2013-01-15 17:43:00,49.0,30.0,-100.00,SE,128,5.0,-999.0,49,0.00,,,-99.99,,2013-01-16 01:43:00,
2013-01-15 17:53:00,49.0,30.0,-100.00,SE,128,5.0,-999.0,49,0.00,,,-99.99,,2013-01-16 01:53:00,
2013-01-15 18:00:00,45.0,31.0,-100.00,South,181,4.0,-999.0,55,0.00,,,-99.99,,2013-01-16 02:00:00,
2013-01-15 18:23:00,45.0,31.0,-100.00,South,181,4.0,-999.0,55,0.00,,,-99.99,,2013-01-16 02:23:00,
2013-01-15 18:33:00,45.0,31.0,-100.00,South,181,4.0,-999.0,55,0.00,,,-99.99,,2013-01-16 02:33:00,
2013-01-15 18:43:00,45.0,31.0,-100.00,South,181,4.0,-999.0,55,0.00,,,-99.99,,2013-01-16 02:43:00,
2013-01-15 18:53:00,45.0,31.0,-100.00,South,181,4.0,-999.0,55,0.00,,,-99.99,,2013-01-16 02:53:00,
2013-01-15 19:00:00,44.0,30.0,-100.00,SSE,154,5.0,-999.0,58,0.00,,,-99.99,,2013-01-16 03:00:00,
2013-01-15 19:22:00,44.0,30.0,-100.00,SSE,154,5.0,-999.0,58,0.00,,,-99.99,,2013-01-16 03:22:00,
2013-01-15 19:33:00,44.0,30.0,-100.00,SSE,154,5.0,-999.0,58,0.00,,,-99.99,,2013-01-16 03:33:00,
2013-01-15 19:43:00,44.0,30.0,-100.00,SSE,154,5.0,-999.0,58,0.00,,,-99.99,,2013-01-16 03:43:00,
2013-01-15 19:53:00,44.0,30.0,-100.00,SSE,154,5.0,-999.0,58,0.00,,,-99.99,,2013-01-16 03:53:00,
2013-01-15 20:00:00,43.0,31.0,-100.00,SSE,164,3.0,-999.0,62,0.00,,,-99.99,,2013-01-16 04:00:00,
2013-01-15 20:22:00,43.0,31.0,-100.00,SSE,164,3.0,-999.0,62,0.00,,,-99.99,,2013-01-16 04:22:00,
2013-01-15 20:33:00,43.0,31.0,-100.00,SSE,164,3.0,-999.0,62,0.00,,,-99.99,,2013-01-16 04:33:00,
2013-01-15 20:42:00,43.0,31.0,-100.00,SSE,164,3.0,-999.0,62,0.00,,,-99.99,,2013-01-16 04:42:00,
2013-01-15 20:52:00,43.0,31.0,-100.00,SSE,164,3.0,-999.0,62,0.00,,,-99.99,,2013-01-16 04:52:00,
2013-01-15 21:00:00,42.0,32.0,-100.00,SSW,198,2.0,-999.0,66,0.00,,,-99.99,,2013-01-16 05:00:00,
2013-01-15 21:23:00,42.0,32.0,-100.00,SSW,198,2.0,-999.0,66,0.00,,,-99.99,,2013-01-16 05:23:00,
2013-01-15 21:33:00,42.0,32.0,-100.00,SSW,198,2.0,-999.0,66,0.00,,,-99.99,,2013-01-16 05:33:00,
2013-01-15 21:42:00,42.0,32.0,-100.00,SSW,198,2.0,-999.0,66,0.00,,,-99.99,,2013-01-16 05:42:00,
2013-01-15 21:53:00,42.0,32.0,-100.00,SSW,198,2.0,-999.0,66,0.00,,,-99.99,,2013-01-16 05:53:00,
2013-01-15 23:00:00,42.0,30.0,-100.00,East,79,1.0,-999.0,61,0.00,,,-99.99,,2013-01-16 07:00:00,
2013-01-15 23:22:00,42.0,30.0,-100.00,East,79,1.0,-999.0,61,0.00,,,-99.99,,2013-01-16 07:22:00,
2013-01-15 23:33:00,42.0,30.0,-100.00,East,79,1.0,-999.0,61,0.00,,,-99.99,,2013-01-16 07:33:00,
2013-01-15 23:42:00,42.0,30.0,-100.00,East,79,1.0,-999.0,61,0.00,,,-99.99,,2013-01-16 07:42:00,
2013-01-15 23:52:00,42.0,30.0,-100.00,East,79,1.0,-999.0,61,0.00,,,-99.99,,2013-01-16 07:52:00,